This demonstration page uses our WeatherBlox Daily Observations layout. Learn more.

Left ArrowRight Arrow

Hourly Observations for May 19, 2022

Temp ( °F °C ) Dew Point ( °F °C ) Humidity (%) Winds ( mph kmh ) Pressure ( in mb ) Visibility ( mi km ) Precip ( " mm )
12:15 am 00:15 Cloudy 68 20 55 13 64 64 S 8 13 29.82 1010 10 16 0.00 0.00
12:35 am 00:35 Cloudy with Light Rain 63 17 59 15 88 88 WSW 5 7 29.83 1010 10 16 0.00 0.00
12:55 am 00:55 Cloudy with Rain 63 17 59 15 88 88 Calm 29.84 1010 10 16 0.03 0.76
1:15 am 01:15 Cloudy with Rain 61 16 59 15 94 94 N 3 6 29.83 1010 4 6 0.05 1.27
1:35 am 01:35 Cloudy with Rain 61 16 61 16 100 100 NE 7 11 29.81 1009 10 16 0.08 2.03
1:55 am 01:55 Cloudy with Rain 59 15 59 15 100 100 NE 5 7 29.80 1009 10 16 0.10 2.54
2:15 am 02:15 Cloudy with Rain 59 15 59 15 100 100 NE 5 7 29.78 1008 7 11 0.01 0.25
2:35 am 02:35 Cloudy with Light Rain 59 15 59 15 100 100 NE 5 7 29.77 1008 7 11 0.02 0.51
2:55 am 02:55 Cloudy with Light Rain 59 15 59 15 100 100 NE 3 6 29.76 1008 7 11 0.03 0.76
3:15 am 03:15 Cloudy 59 15 59 15 100 100 ENE 3 6 29.75 1007 7 11 0.00 0.00
3:35 am 03:35 Cloudy 59 15 59 15 100 100 NNE 3 6 29.75 1007 7 11 0.00 0.00
3:55 am 03:55 Cloudy with Rain 59 15 59 15 100 100 NNE 3 6 29.74 1007 7 11 0.00 0.00
4:15 am 04:15 Cloudy with Rain 59 15 59 15 100 100 NNE 7 11 29.75 1007 4 6 0.01 0.25
4:35 am 04:35 Cloudy with Mist and Fog 59 15 59 15 100 100 N 8 13 29.75 1007 5 8 0.02 0.51
4:55 am 04:55 Cloudy with Rain 59 15 59 15 100 100 NNE 3 6 29.75 1007 4 6 0.04 1.02
5:15 am 05:15 Cloudy with Drizzle 57 14 57 14 100 100 NNE 3 6 29.75 1007 4 6 0.01 0.25
5:35 am 05:35 Cloudy with Light Rain 57 14 57 14 100 100 N 6 9 29.75 1007 4 6 0.01 0.25
5:55 am 05:55 Cloudy with Mist and Fog 57 14 57 14 100 100 NNE 3 6 29.75 1007 5 8 0.01 0.25
6:15 am 06:15 Cloudy with Mist and Fog 57 14 57 14 100 100 N 3 6 29.76 1008 5 8 0.00 0.00
6:35 am 06:35 Cloudy with Mist and Fog 57 14 57 14 100 100 N 6 9 29.77 1008 5 8 0.00 0.00
6:55 am 06:55 Cloudy 59 15 59 15 100 100 Calm 29.78 1008 7 11 0.00 0.00
7:15 am 07:15 Cloudy 59 15 59 15 100 100 WNW 3 6 29.79 1009 10 16 0.00 0.00
7:35 am 07:35 Cloudy 59 15 59 15 100 100 Calm 29.79 1009 10 16 0.00 0.00
7:55 am 07:55 Cloudy 59 15 59 15 100 100 Calm 29.79 1009 10 16 0.00 0.00
8:15 am 08:15 Cloudy 59 15 59 15 100 100 Calm 29.78 1008 10 16 0.00 0.00
8:35 am 08:35 Cloudy 61 16 59 15 94 94 Calm 29.79 1009 10 16 0.00 0.00
8:55 am 08:55 Cloudy 63 17 61 16 94 94 Calm 29.78 1008 10 16 0.00 0.00
9:15 am 09:15 Cloudy 63 17 61 16 94 94 Calm 29.79 1009 10 16 0.00 0.00
9:35 am 09:35 Cloudy 64 18 61 16 88 88 Calm 29.78 1009 10 16 0.00 0.00
9:55 am 09:55 Mostly Cloudy 66 19 63 17 88 88 Calm 29.79 1009 10 16 0.00 0.00
10:15 am 10:15 Mostly Cloudy 68 20 63 17 83 83 Calm 29.79 1009 10 16 0.00 0.00
10:35 am 10:35 Mostly Cloudy 68 20 64 18 88 88 Calm 29.79 1009 10 16 0.00 0.00
10:55 am 10:55 Partly Cloudy 72 22 64 18 78 78 WNW 8 13 29.79 1009 10 16 0.00 0.00
11:15 am 11:15 Partly Cloudy 73 23 64 18 74 74 WNW 3 6 29.79 1009 10 16 0.00 0.00
11:35 am 11:35 Partly Cloudy 73 23 64 18 74 74 NW 9 15 29.79 1009 10 16 0.00 0.00
11:55 am 11:55 Partly Cloudy 75 24 64 18 69 69 W 3 6 29.78 1008 10 16 0.00 0.00
12:15 pm 12:15 Partly Cloudy 77 25 66 19 69 69 W 6 9 29.76 1008 10 16 0.00 0.00
12:35 pm 12:35 Partly Cloudy 77 25 64 18 65 65 WNW 13 20 29.75 1008 10 16 0.00 0.00
12:55 pm 12:55 Partly Cloudy 79 26 64 18 61 61 WNW 10 17 29.76 1008 10 16 0.00 0.00
1:15 pm 13:15 Partly Cloudy 79 26 68 20 70 70 W 12 19 29.76 1008 10 16 0.00 0.00
1:35 pm 13:35 Sunny 79 26 66 19 65 65 NW 13 20 29.75 1008 10 16 0.00 0.00
1:55 pm 13:55 Partly Cloudy 79 26 64 18 61 61 NW 14 22 29.75 1008 10 16 0.00 0.00
2:15 pm 14:15 Sunny 81 27 63 17 54 54 WNW 13 20 29.75 1008 10 16 0.00 0.00
2:35 pm 14:35 Partly Cloudy 81 27 64 18 58 58 W 12 19 29.75 1008 10 16 0.00 0.00
2:55 pm 14:55 Partly Cloudy 81 27 63 17 54 54 W 10 17 29.75 1008 10 16 0.00 0.00
3:15 pm 15:15 Partly Cloudy 81 27 63 17 54 54 WNW 18 30 29.75 1008 10 16 0.00 0.00
3:35 pm 15:35 Partly Cloudy 82 28 61 16 48 48 WNW 14 22 29.75 1007 10 16 0.00 0.00
3:55 pm 15:55 Partly Cloudy 82 28 61 16 48 48 NW 15 24 29.74 1007 10 16 0.00 0.00
4:15 pm 16:15 Sunny 82 28 59 15 45 45 WNW 16 26 29.74 1007 10 16 0.00 0.00
4:35 pm 16:35 Partly Cloudy 82 28 59 15 45 45 NW 16 26 29.74 1007 10 16 0.00 0.00
4:55 pm 16:55 Sunny 82 28 59 15 45 45 WNW 8 13 29.74 1007 10 16 0.00 0.00
5:15 pm 17:15 Sunny 81 27 59 15 48 48 WNW 13 20 29.75 1008 10 16 0.00 0.00
5:35 pm 17:35 Sunny 82 28 59 15 45 45 WNW 12 19 29.75 1007 10 16 0.00 0.00
5:55 pm 17:55 Sunny 81 27 59 15 48 48 WNW 12 19 29.75 1008 10 16 0.00 0.00
6:15 pm 18:15 Sunny 81 27 59 15 48 48 WNW 10 17 29.75 1008 10 16 0.00 0.00
6:35 pm 18:35 Sunny 81 27 59 15 48 48 WNW 9 15 29.75 1008 10 16 0.00 0.00
6:55 pm 18:55 Sunny 81 27 59 15 48 48 WNW 5 7 29.74 1007 10 16 0.00 0.00
7:15 pm 19:15 Sunny 81 27 59 15 48 48 Calm 29.75 1008 10 16 0.00 0.00
7:35 pm 19:35 Sunny 79 26 59 15 51 51 Calm 29.75 1008 10 16 0.00 0.00
7:55 pm 19:55 Sunny 77 25 59 15 54 54 W 3 6 29.77 1008 10 16 0.00 0.00
8:15 pm 20:15 Sunny 77 25 61 16 57 57 W 3 6 29.78 1009 10 16 0.00 0.00
8:35 pm 20:35 Clear 75 24 61 16 61 61 Calm 29.80 1009 10 16 0.00 0.00
8:55 pm 20:55 Clear 73 23 61 16 65 65 Calm 29.81 1009 10 16 0.00 0.00
9:15 pm 21:15 Clear 72 22 61 16 69 69 Calm 29.82 1010 10 16 0.00 0.00
9:35 pm 21:35 Clear 72 22 61 16 69 69 Calm 29.82 1010 10 16 0.00 0.00
9:55 pm 21:55 Clear 70 21 63 17 78 78 Calm 29.82 1010 10 16 0.00 0.00
10:15 pm 22:15 Clear 70 21 63 17 78 78 Calm 29.83 1010 10 16 0.00 0.00
10:35 pm 22:35 Clear 68 20 63 17 83 83 Calm 29.84 1011 10 16 0.00 0.00
10:55 pm 22:55 Clear 68 20 61 16 78 78 Calm 29.84 1011 10 16 0.00 0.00
11:15 pm 23:15 Clear 68 20 61 16 78 78 Calm 29.83 1010 10 16 0.00 0.00
11:35 pm 23:35 Clear 66 19 61 16 83 83 Calm 29.83 1010 10 16 0.00 0.00
11:55 pm 23:55 Clear 64 18 61 16 88 88 WSW 3 6 29.83 1010 10 16 0.00 0.00

Powered by AerisWeather